Year,Month,Day,Hour,Minute,Value (Times are PST for temperature in C)
2019,04,27,00,00,7.30
2019,04,27,00,01,7.30
2019,04,27,00,02,7.30
2019,04,27,00,03,7.30
2019,04,27,00,04,7.30
2019,04,27,00,05,7.20
2019,04,27,00,06,7.20
2019,04,27,00,07,7.20
2019,04,27,00,08,7.10
2019,04,27,00,09,7.00
2019,04,27,00,10,7.00
2019,04,27,00,11,6.90
2019,04,27,00,12,6.80
2019,04,27,00,13,6.80
2019,04,27,00,14,6.80
2019,04,27,00,15,6.80
2019,04,27,00,16,6.80
2019,04,27,00,17,6.80
2019,04,27,00,18,6.80
2019,04,27,00,19,6.80
2019,04,27,00,20,6.80
2019,04,27,00,21,6.80
2019,04,27,00,22,6.80
2019,04,27,00,23,6.80
2019,04,27,00,24,6.70
2019,04,27,00,25,6.70
2019,04,27,00,26,6.60
2019,04,27,00,27,6.70
2019,04,27,00,28,6.80
2019,04,27,00,29,6.80
2019,04,27,00,30,6.80
2019,04,27,00,31,6.80
2019,04,27,00,32,6.70
2019,04,27,00,33,6.70
2019,04,27,00,34,6.70
2019,04,27,00,35,6.70
2019,04,27,00,36,6.60
2019,04,27,00,37,6.60
2019,04,27,00,38,6.60
2019,04,27,00,39,6.60
2019,04,27,00,40,6.60
2019,04,27,00,41,6.60
2019,04,27,00,42,6.60
2019,04,27,00,43,6.40
2019,04,27,00,44,6.40
2019,04,27,00,45,6.40
2019,04,27,00,46,6.40
2019,04,27,00,47,6.40
2019,04,27,00,48,6.30
2019,04,27,00,49,6.30
2019,04,27,00,50,6.30
2019,04,27,00,51,6.30
2019,04,27,00,52,6.30
2019,04,27,00,53,6.30
2019,04,27,00,54,6.30
2019,04,27,00,55,6.20
2019,04,27,00,56,6.20
2019,04,27,00,57,6.20
2019,04,27,00,58,6.20
2019,04,27,00,59,6.20
2019,04,27,01,00,6.30
2019,04,27,01,01,6.40
2019,04,27,01,02,6.50
2019,04,27,01,03,6.60
2019,04,27,01,04,6.60
2019,04,27,01,05,6.70
2019,04,27,01,06,6.70
2019,04,27,01,07,6.70
2019,04,27,01,08,6.70
2019,04,27,01,09,6.70
2019,04,27,01,10,6.70
2019,04,27,01,11,6.70
2019,04,27,01,12,6.70
2019,04,27,01,13,6.70
2019,04,27,01,14,6.70
2019,04,27,01,15,6.70
2019,04,27,01,16,6.70
2019,04,27,01,17,6.60
2019,04,27,01,18,6.60
2019,04,27,01,19,6.60
2019,04,27,01,20,6.40
2019,04,27,01,21,6.40
2019,04,27,01,22,6.40
2019,04,27,01,23,6.40
2019,04,27,01,24,6.40
2019,04,27,01,25,6.40
2019,04,27,01,26,6.40
2019,04,27,01,27,6.40
2019,04,27,01,28,6.40
2019,04,27,01,29,6.40
2019,04,27,01,30,6.40
2019,04,27,01,31,6.60
2019,04,27,01,32,6.60
2019,04,27,01,33,6.60
2019,04,27,01,34,6.60
2019,04,27,01,35,6.60
2019,04,27,01,36,6.70
2019,04,27,01,37,6.70
2019,04,27,01,38,6.70
2019,04,27,01,39,6.70
2019,04,27,01,40,6.70
2019,04,27,01,41,6.70
2019,04,27,01,42,6.70
2019,04,27,01,43,6.70
2019,04,27,01,44,6.60
2019,04,27,01,45,6.60
2019,04,27,01,46,6.60
2019,04,27,01,47,6.60
2019,04,27,01,48,6.60
2019,04,27,01,49,6.60
2019,04,27,01,50,6.60
2019,04,27,01,51,6.60
2019,04,27,01,52,6.60
2019,04,27,01,53,6.60
2019,04,27,01,54,6.60
2019,04,27,01,55,6.50
2019,04,27,01,56,6.40
2019,04,27,01,57,6.40
2019,04,27,01,58,6.40
2019,04,27,01,59,6.40
2019,04,27,02,00,6.30
2019,04,27,02,01,6.30
2019,04,27,02,02,6.30
2019,04,27,02,03,6.30
2019,04,27,02,04,6.30
2019,04,27,02,05,6.30
2019,04,27,02,06,6.30
2019,04,27,02,07,6.30
2019,04,27,02,08,6.30
2019,04,27,02,09,6.30
2019,04,27,02,10,6.30
2019,04,27,02,11,6.30
2019,04,27,02,12,6.20
2019,04,27,02,13,6.20
2019,04,27,02,14,6.20
2019,04,27,02,15,6.20
2019,04,27,02,16,6.20
2019,04,27,02,17,6.20
2019,04,27,02,18,6.20
2019,04,27,02,19,6.20
2019,04,27,02,20,6.20
2019,04,27,02,21,6.20
2019,04,27,02,22,6.20
2019,04,27,02,23,6.20
2019,04,27,02,24,6.20
2019,04,27,02,25,6.20
2019,04,27,02,26,6.10
2019,04,27,02,27,6.00
2019,04,27,02,28,6.00
2019,04,27,02,29,5.90
2019,04,27,02,30,5.90
2019,04,27,02,31,5.80
2019,04,27,02,32,5.80
2019,04,27,02,33,5.80
2019,04,27,02,34,5.80
2019,04,27,02,35,5.80
2019,04,27,02,36,5.90
2019,04,27,02,37,5.90
2019,04,27,02,38,5.90
2019,04,27,02,39,5.90
2019,04,27,02,40,5.90
2019,04,27,02,41,5.90
2019,04,27,02,42,5.80
2019,04,27,02,43,5.80
2019,04,27,02,44,5.70
2019,04,27,02,45,5.70
2019,04,27,02,46,5.70
2019,04,27,02,47,5.60
2019,04,27,02,48,5.60
2019,04,27,02,49,5.50
2019,04,27,02,50,5.50
2019,04,27,02,51,5.50
2019,04,27,02,52,5.40
2019,04,27,02,53,5.40
2019,04,27,02,54,5.30
2019,04,27,02,55,5.30
2019,04,27,02,56,5.30
2019,04,27,02,57,5.30
2019,04,27,02,58,5.30
2019,04,27,02,59,5.40
2019,04,27,03,00,5.50
2019,04,27,03,01,5.50
2019,04,27,03,02,5.50
2019,04,27,03,03,5.50
2019,04,27,03,04,5.50
2019,04,27,03,05,5.50
2019,04,27,03,06,5.50
2019,04,27,03,07,5.60
2019,04,27,03,08,5.60
2019,04,27,03,09,5.70
2019,04,27,03,10,5.70
2019,04,27,03,11,5.70
2019,04,27,03,12,5.70
2019,04,27,03,13,5.60
2019,04,27,03,14,5.60
2019,04,27,03,15,5.60
2019,04,27,03,16,5.60
2019,04,27,03,17,5.50
2019,04,27,03,18,5.50
2019,04,27,03,19,5.50
2019,04,27,03,20,5.40
2019,04,27,03,21,5.40
2019,04,27,03,22,5.40
2019,04,27,03,23,5.40
2019,04,27,03,24,5.40
2019,04,27,03,25,5.40
2019,04,27,03,26,5.40
2019,04,27,03,27,5.40
2019,04,27,03,28,5.30
2019,04,27,03,29,5.30
2019,04,27,03,30,5.30
2019,04,27,03,31,5.30
2019,04,27,03,32,5.30
2019,04,27,03,33,5.20
2019,04,27,03,34,5.20
2019,04,27,03,35,5.10
2019,04,27,03,36,5.10
2019,04,27,03,37,5.10
2019,04,27,03,38,5.10
2019,04,27,03,39,5.10
2019,04,27,03,40,5.10
2019,04,27,03,41,5.10
2019,04,27,03,42,5.00
2019,04,27,03,43,4.90
2019,04,27,03,44,4.90
2019,04,27,03,45,4.90
2019,04,27,03,46,4.90
2019,04,27,03,47,4.90
2019,04,27,03,48,4.90
2019,04,27,03,49,4.90
2019,04,27,03,50,4.90
2019,04,27,03,51,4.90
2019,04,27,03,52,4.90
2019,04,27,03,53,4.90
2019,04,27,03,54,4.90
2019,04,27,03,55,4.90
2019,04,27,03,56,4.90
2019,04,27,03,57,4.90
2019,04,27,03,58,4.80
2019,04,27,03,59,4.80
2019,04,27,04,00,4.80
2019,04,27,04,01,4.80
2019,04,27,04,02,4.70
2019,04,27,04,03,4.70
2019,04,27,04,04,4.60
2019,04,27,04,05,4.60
2019,04,27,04,06,4.60
2019,04,27,04,07,4.60
2019,04,27,04,08,4.60
2019,04,27,04,09,4.60
2019,04,27,04,10,4.50
2019,04,27,04,11,4.50
2019,04,27,04,12,4.40
2019,04,27,04,13,4.40
2019,04,27,04,14,4.40
2019,04,27,04,15,4.30
2019,04,27,04,16,4.30
2019,04,27,04,17,4.20
2019,04,27,04,18,4.20
2019,04,27,04,19,4.10
2019,04,27,04,20,4.00
2019,04,27,04,21,4.00
2019,04,27,04,22,3.90
2019,04,27,04,23,3.90
2019,04,27,04,24,3.90
2019,04,27,04,25,3.80
2019,04,27,04,26,3.80
2019,04,27,04,27,3.80
2019,04,27,04,28,3.80
2019,04,27,04,29,3.80
2019,04,27,04,30,3.80
2019,04,27,04,31,3.80
2019,04,27,04,32,3.80
2019,04,27,04,33,3.80
2019,04,27,04,34,3.70
2019,04,27,04,35,3.70
2019,04,27,04,36,3.80
2019,04,27,04,37,3.80
2019,04,27,04,38,3.90
2019,04,27,04,39,3.90
2019,04,27,04,40,3.90
2019,04,27,04,41,3.90
2019,04,27,04,42,3.80
2019,04,27,04,43,3.80
2019,04,27,04,44,3.80
2019,04,27,04,45,3.80
2019,04,27,04,46,3.70
2019,04,27,04,47,3.70
2019,04,27,04,48,3.60
2019,04,27,04,49,3.60
2019,04,27,04,50,3.50
2019,04,27,04,51,3.50
2019,04,27,04,52,3.40
2019,04,27,04,53,3.30
2019,04,27,04,54,3.30
2019,04,27,04,55,3.30
2019,04,27,04,56,3.30
2019,04,27,04,57,3.30
2019,04,27,04,58,3.30
2019,04,27,04,59,3.20
2019,04,27,05,00,3.20
2019,04,27,05,01,3.10
2019,04,27,05,02,3.10
2019,04,27,05,03,3.10
2019,04,27,05,04,3.10
2019,04,27,05,05,3.10
2019,04,27,05,06,3.10
2019,04,27,05,07,2.90
2019,04,27,05,08,2.90
2019,04,27,05,09,2.90
2019,04,27,05,10,2.90
2019,04,27,05,11,2.90
2019,04,27,05,12,2.90
2019,04,27,05,13,2.90
2019,04,27,05,14,2.90
2019,04,27,05,15,2.90
2019,04,27,05,16,2.90
2019,04,27,05,17,2.90
2019,04,27,05,18,2.90
2019,04,27,05,19,2.80
2019,04,27,05,20,2.80
2019,04,27,05,21,2.80
2019,04,27,05,22,2.80
2019,04,27,05,23,2.80
2019,04,27,05,24,2.80
2019,04,27,05,25,2.70
2019,04,27,05,26,2.70
2019,04,27,05,27,2.70
2019,04,27,05,28,2.70
2019,04,27,05,29,2.70
2019,04,27,05,30,2.70
2019,04,27,05,31,2.70
2019,04,27,05,32,2.70
2019,04,27,05,33,2.70
2019,04,27,05,34,2.70
2019,04,27,05,35,2.70
2019,04,27,05,36,2.60
2019,04,27,05,37,2.60
2019,04,27,05,38,2.60
2019,04,27,05,39,2.60
2019,04,27,05,40,2.50
2019,04,27,05,41,2.50
2019,04,27,05,42,2.50
2019,04,27,05,43,2.50
2019,04,27,05,44,2.50
2019,04,27,05,45,2.50
2019,04,27,05,46,2.50
2019,04,27,05,47,2.50
2019,04,27,05,48,2.40
2019,04,27,05,49,2.40
2019,04,27,05,50,2.40
2019,04,27,05,51,2.40
2019,04,27,05,52,2.30
2019,04,27,05,53,2.30
2019,04,27,05,54,2.30
2019,04,27,05,55,2.30
2019,04,27,05,56,2.20
2019,04,27,05,57,2.20
2019,04,27,05,58,2.20
2019,04,27,05,59,2.20
2019,04,27,06,00,2.20
2019,04,27,06,01,2.20
2019,04,27,06,02,2.10
2019,04,27,06,03,2.10
2019,04,27,06,04,2.10
2019,04,27,06,05,2.00
2019,04,27,06,06,2.00
2019,04,27,06,07,2.00
2019,04,27,06,08,1.90
2019,04,27,06,09,1.90
2019,04,27,06,10,1.90
2019,04,27,06,11,1.80
2019,04,27,06,12,1.80
2019,04,27,06,13,1.80
2019,04,27,06,14,1.80
2019,04,27,06,15,1.80
2019,04,27,06,16,1.80
2019,04,27,06,17,1.80
2019,04,27,06,18,1.70
2019,04,27,06,19,1.70
2019,04,27,06,20,1.70
2019,04,27,06,21,1.70
2019,04,27,06,22,1.70
2019,04,27,06,23,1.70
2019,04,27,06,24,1.60
2019,04,27,06,25,1.60
2019,04,27,06,26,1.60
2019,04,27,06,27,1.60
2019,04,27,06,28,1.50
2019,04,27,06,29,1.50
2019,04,27,06,30,1.50
2019,04,27,06,31,1.50
2019,04,27,06,32,1.50
2019,04,27,06,33,1.40
2019,04,27,06,34,1.40
2019,04,27,06,35,1.40
2019,04,27,06,36,1.40
2019,04,27,06,37,1.40
2019,04,27,06,38,1.40
2019,04,27,06,39,1.40
2019,04,27,06,40,1.40
2019,04,27,06,41,1.40
2019,04,27,06,42,1.40
2019,04,27,06,43,1.40
2019,04,27,06,44,1.40
2019,04,27,06,45,1.40
2019,04,27,06,46,1.30
2019,04,27,06,47,1.30
2019,04,27,06,48,1.30
2019,04,27,06,49,1.30
2019,04,27,06,50,1.30
2019,04,27,06,51,1.30
2019,04,27,06,52,1.30
2019,04,27,06,53,1.40
2019,04,27,06,54,1.40
2019,04,27,06,55,1.40
2019,04,27,06,56,1.40
2019,04,27,06,57,1.40
2019,04,27,06,58,1.40
2019,04,27,06,59,1.40
2019,04,27,07,00,1.40
2019,04,27,07,01,1.40
2019,04,27,07,02,1.50
2019,04,27,07,03,1.50
2019,04,27,07,04,1.50
2019,04,27,07,05,1.50
2019,04,27,07,06,1.60
2019,04,27,07,07,1.60
2019,04,27,07,08,1.70
2019,04,27,07,09,1.80
2019,04,27,07,10,1.80
2019,04,27,07,11,1.80
2019,04,27,07,12,1.80
2019,04,27,07,13,1.90
2019,04,27,07,14,1.90
2019,04,27,07,15,1.90
2019,04,27,07,16,1.90
2019,04,27,07,17,1.90
2019,04,27,07,18,1.90
2019,04,27,07,19,1.90
2019,04,27,07,20,1.90
2019,04,27,07,21,1.90
2019,04,27,07,22,1.90
2019,04,27,07,23,1.90
2019,04,27,07,24,1.90
2019,04,27,07,25,1.90
2019,04,27,07,26,1.90
2019,04,27,07,27,1.90
2019,04,27,07,28,1.90
2019,04,27,07,29,2.00
2019,04,27,07,30,2.00
2019,04,27,07,31,2.00
2019,04,27,07,32,2.00
2019,04,27,07,33,2.10
2019,04,27,07,34,2.10
2019,04,27,07,35,2.20
2019,04,27,07,36,2.20
2019,04,27,07,37,2.20
2019,04,27,07,38,2.30
2019,04,27,07,39,2.30
2019,04,27,07,40,2.30
2019,04,27,07,41,2.30
2019,04,27,07,42,2.40
2019,04,27,07,43,2.40
2019,04,27,07,44,2.40
2019,04,27,07,45,2.60
2019,04,27,07,46,2.70
2019,04,27,07,47,2.80
2019,04,27,07,48,2.80
2019,04,27,07,49,2.90
2019,04,27,07,50,3.10
2019,04,27,07,51,3.20
2019,04,27,07,52,3.30
2019,04,27,07,53,3.30
2019,04,27,07,54,3.50
2019,04,27,07,55,3.70
2019,04,27,07,56,3.90
2019,04,27,07,57,4.10
2019,04,27,07,58,4.30
2019,04,27,07,59,4.40
2019,04,27,08,00,4.50
2019,04,27,08,01,4.60
2019,04,27,08,02,4.60
2019,04,27,08,03,4.70
2019,04,27,08,04,4.80
2019,04,27,08,05,4.90
2019,04,27,08,06,4.90
2019,04,27,08,07,5.00
2019,04,27,08,08,5.10
2019,04,27,08,09,5.10
2019,04,27,08,10,5.20
2019,04,27,08,11,5.20
2019,04,27,08,12,5.30
2019,04,27,08,13,5.30
2019,04,27,08,14,5.40
2019,04,27,08,15,5.50
2019,04,27,08,16,5.50
2019,04,27,08,17,5.50
2019,04,27,08,18,5.60
2019,04,27,08,19,5.70
2019,04,27,08,20,5.70
2019,04,27,08,21,5.80
2019,04,27,08,22,5.80
2019,04,27,08,23,5.90
2019,04,27,08,24,6.00
2019,04,27,08,25,6.10
2019,04,27,08,26,6.20
2019,04,27,08,27,6.20
2019,04,27,08,28,6.30
2019,04,27,08,29,6.40
2019,04,27,08,30,6.50
2019,04,27,08,31,6.60
2019,04,27,08,32,6.60
2019,04,27,08,33,6.70
2019,04,27,08,34,6.70
2019,04,27,08,35,6.70
2019,04,27,08,36,6.80
2019,04,27,08,37,6.80
2019,04,27,08,38,6.80
2019,04,27,08,39,6.80
2019,04,27,08,40,6.90
2019,04,27,08,41,6.90
2019,04,27,08,42,7.00
2019,04,27,08,43,7.00
2019,04,27,08,44,7.10
2019,04,27,08,45,7.20
2019,04,27,08,46,7.30
2019,04,27,08,47,7.50
2019,04,27,08,48,7.50
2019,04,27,08,49,7.60
2019,04,27,08,50,7.60
2019,04,27,08,51,7.70
2019,04,27,08,52,7.80
2019,04,27,08,53,7.90
2019,04,27,08,54,8.00
2019,04,27,08,55,8.10
2019,04,27,08,56,8.20
2019,04,27,08,57,8.20
2019,04,27,08,58,8.20
2019,04,27,08,59,8.20
2019,04,27,09,00,8.20
2019,04,27,09,01,8.20
2019,04,27,09,02,8.30
2019,04,27,09,03,8.30
2019,04,27,09,04,8.30
2019,04,27,09,05,8.30
2019,04,27,09,06,8.40
2019,04,27,09,07,8.50
2019,04,27,09,08,8.50
2019,04,27,09,09,8.50
2019,04,27,09,10,8.50
2019,04,27,09,11,8.60
2019,04,27,09,12,8.60
2019,04,27,09,13,8.70
2019,04,27,09,14,8.70
2019,04,27,09,15,8.80
2019,04,27,09,16,8.80
2019,04,27,09,17,8.90
2019,04,27,09,18,9.00
2019,04,27,09,19,9.00
2019,04,27,09,20,9.00
2019,04,27,09,21,9.00
2019,04,27,09,22,9.00
2019,04,27,09,23,8.90
2019,04,27,09,24,8.90
2019,04,27,09,25,8.80
2019,04,27,09,26,8.70
2019,04,27,09,27,8.60
2019,04,27,09,28,8.60
2019,04,27,09,29,8.70
2019,04,27,09,30,8.70
2019,04,27,09,31,8.80
2019,04,27,09,32,8.90
2019,04,27,09,33,9.00
2019,04,27,09,34,9.00
2019,04,27,09,35,9.00
2019,04,27,09,36,9.00
2019,04,27,09,37,9.00
2019,04,27,09,38,8.90
2019,04,27,09,39,8.90
2019,04,27,09,40,8.90
2019,04,27,09,41,8.90
2019,04,27,09,42,8.90
2019,04,27,09,43,9.00
2019,04,27,09,44,9.00
2019,04,27,09,45,9.10
2019,04,27,09,46,9.10
2019,04,27,09,47,9.20
2019,04,27,09,48,9.20
2019,04,27,09,49,9.20
2019,04,27,09,50,9.20
2019,04,27,09,51,9.20
2019,04,27,09,52,9.30
2019,04,27,09,53,9.40
2019,04,27,09,54,9.50
2019,04,27,09,55,9.60
2019,04,27,09,56,9.60
2019,04,27,09,57,9.70
2019,04,27,09,58,9.70
2019,04,27,09,59,9.80
2019,04,27,10,00,9.80
2019,04,27,10,01,9.80
2019,04,27,10,02,9.90
2019,04,27,10,03,9.90
2019,04,27,10,04,9.90
2019,04,27,10,05,9.90
2019,04,27,10,06,9.90
2019,04,27,10,07,9.90
2019,04,27,10,08,9.90
2019,04,27,10,09,9.90
2019,04,27,10,10,9.90
2019,04,27,10,11,9.90
2019,04,27,10,12,9.80
2019,04,27,10,13,9.70
2019,04,27,10,14,9.70
2019,04,27,10,15,9.80
2019,04,27,10,16,9.90
2019,04,27,10,17,9.90
2019,04,27,10,18,9.90
2019,04,27,10,19,9.90
2019,04,27,10,20,9.90
2019,04,27,10,21,10.00
2019,04,27,10,22,10.10
2019,04,27,10,23,10.20
2019,04,27,10,24,10.20
2019,04,27,10,25,10.20
2019,04,27,10,26,10.20
2019,04,27,10,27,10.20
2019,04,27,10,28,10.10
2019,04,27,10,29,10.10
2019,04,27,10,30,10.20
2019,04,27,10,31,10.30
2019,04,27,10,32,10.30
2019,04,27,10,33,10.30
2019,04,27,10,34,10.30
2019,04,27,10,35,10.30
2019,04,27,10,36,10.40
2019,04,27,10,37,10.40
2019,04,27,10,38,10.40
2019,04,27,10,39,10.50
2019,04,27,10,40,10.60
2019,04,27,10,41,10.60
2019,04,27,10,42,10.70
2019,04,27,10,43,10.80
2019,04,27,10,44,10.90
2019,04,27,10,45,11.00
2019,04,27,10,46,11.10
2019,04,27,10,47,11.10
2019,04,27,10,48,11.20
2019,04,27,10,49,11.30
2019,04,27,10,50,11.30
2019,04,27,10,51,11.40
2019,04,27,10,52,11.30
2019,04,27,10,53,11.40
2019,04,27,10,54,11.30
2019,04,27,10,55,11.30
2019,04,27,10,56,11.30
2019,04,27,10,57,11.40
2019,04,27,10,58,11.40
2019,04,27,10,59,11.40
2019,04,27,11,00,11.40
2019,04,27,11,01,11.40
2019,04,27,11,02,11.40
2019,04,27,11,03,11.50
2019,04,27,11,04,11.60
2019,04,27,11,05,11.70
2019,04,27,11,06,11.60
2019,04,27,11,07,11.50
2019,04,27,11,08,11.40
2019,04,27,11,09,11.40
2019,04,27,11,10,11.40
2019,04,27,11,11,11.50
2019,04,27,11,12,11.60
2019,04,27,11,13,11.60
2019,04,27,11,14,11.70
2019,04,27,11,15,11.60
2019,04,27,11,16,11.60
2019,04,27,11,17,11.50
2019,04,27,11,18,11.40
2019,04,27,11,19,11.40
2019,04,27,11,20,11.40
2019,04,27,11,21,11.40
2019,04,27,11,22,11.50
2019,04,27,11,23,11.60
2019,04,27,11,24,11.60
2019,04,27,11,25,11.70
2019,04,27,11,26,11.70
2019,04,27,11,27,11.60
2019,04,27,11,28,11.70
2019,04,27,11,29,11.80
2019,04,27,11,30,11.80
2019,04,27,11,31,11.80
2019,04,27,11,32,11.80
2019,04,27,11,33,11.70
2019,04,27,11,34,11.60
2019,04,27,11,35,11.60
2019,04,27,11,36,11.60
2019,04,27,11,37,11.70
2019,04,27,11,38,11.80
2019,04,27,11,39,11.80
2019,04,27,11,40,11.80
2019,04,27,11,41,11.80
2019,04,27,11,42,11.80
2019,04,27,11,43,11.80
2019,04,27,11,44,11.80
2019,04,27,11,45,11.70
2019,04,27,11,46,11.60
2019,04,27,11,47,11.50
2019,04,27,11,48,11.40
2019,04,27,11,49,11.30
2019,04,27,11,50,11.30
2019,04,27,11,51,11.20
2019,04,27,11,52,11.10
2019,04,27,11,53,11.10
2019,04,27,11,54,11.10
2019,04,27,11,55,11.10
2019,04,27,11,56,11.10
2019,04,27,11,57,11.10
2019,04,27,11,58,11.10
2019,04,27,11,59,11.10
2019,04,27,12,00,11.20
2019,04,27,12,01,11.20
2019,04,27,12,02,11.20
2019,04,27,12,03,11.30
2019,04,27,12,04,11.40
2019,04,27,12,05,11.40
2019,04,27,12,06,11.50
2019,04,27,12,07,11.60
2019,04,27,12,08,11.60
2019,04,27,12,09,11.70
2019,04,27,12,10,11.80
2019,04,27,12,11,11.80
2019,04,27,12,12,11.70
2019,04,27,12,13,11.60
2019,04,27,12,14,11.50
2019,04,27,12,15,11.30
2019,04,27,12,16,11.20
2019,04,27,12,17,11.10
2019,04,27,12,18,11.00
2019,04,27,12,19,10.90
2019,04,27,12,20,10.80
2019,04,27,12,21,10.70
2019,04,27,12,22,10.70
2019,04,27,12,23,10.60
2019,04,27,12,24,10.60
2019,04,27,12,25,10.40
2019,04,27,12,26,10.40
2019,04,27,12,27,10.40
2019,04,27,12,28,10.30
2019,04,27,12,29,10.20
2019,04,27,12,30,10.10
2019,04,27,12,31,10.10
2019,04,27,12,32,10.10
2019,04,27,12,33,10.00
2019,04,27,12,34,9.90
2019,04,27,12,35,9.90
2019,04,27,12,36,9.90
2019,04,27,12,37,9.90
2019,04,27,12,38,9.80
2019,04,27,12,39,9.80
2019,04,27,12,40,9.80
2019,04,27,12,41,9.70
2019,04,27,12,42,9.70
2019,04,27,12,43,9.70
2019,04,27,12,44,9.60
2019,04,27,12,45,9.60
2019,04,27,12,46,9.60
2019,04,27,12,47,9.50
2019,04,27,12,48,9.50
2019,04,27,12,49,9.50
2019,04,27,12,50,9.50
2019,04,27,12,51,9.40
2019,04,27,12,52,9.40
2019,04,27,12,53,9.40
2019,04,27,12,54,9.40
2019,04,27,12,55,9.40
2019,04,27,12,56,9.40
2019,04,27,12,57,9.40
2019,04,27,12,58,9.40
2019,04,27,12,59,9.40
2019,04,27,13,00,9.50
2019,04,27,13,01,9.50
2019,04,27,13,02,9.60
2019,04,27,13,03,9.70
2019,04,27,13,04,9.70
2019,04,27,13,05,9.80
2019,04,27,13,06,9.80
2019,04,27,13,07,9.80
2019,04,27,13,08,9.80
2019,04,27,13,09,9.80
2019,04,27,13,10,9.80
2019,04,27,13,11,9.80
2019,04,27,13,12,9.80
2019,04,27,13,13,9.80
2019,04,27,13,14,9.80
2019,04,27,13,15,9.70
2019,04,27,13,16,9.70
2019,04,27,13,17,9.60
2019,04,27,13,18,9.60
2019,04,27,13,19,9.50
2019,04,27,13,20,9.50
2019,04,27,13,21,9.40
2019,04,27,13,22,9.40
2019,04,27,13,23,9.30
2019,04,27,13,24,9.20
2019,04,27,13,25,9.20
2019,04,27,13,26,9.20
2019,04,27,13,27,9.20
2019,04,27,13,28,9.20
2019,04,27,13,29,9.30
2019,04,27,13,30,9.40
2019,04,27,13,31,9.60
2019,04,27,13,32,9.80
2019,04,27,13,33,10.00
2019,04,27,13,34,10.20
2019,04,27,13,35,10.40
2019,04,27,13,36,10.50
2019,04,27,13,37,10.60
2019,04,27,13,38,10.80
2019,04,27,13,39,10.90
2019,04,27,13,40,11.00
2019,04,27,13,41,11.10
2019,04,27,13,42,11.20
2019,04,27,13,43,11.20
2019,04,27,13,44,11.20
2019,04,27,13,45,11.10
2019,04,27,13,46,11.10
2019,04,27,13,47,11.10
2019,04,27,13,48,11.10
2019,04,27,13,49,11.00
2019,04,27,13,50,11.10
2019,04,27,13,51,11.00
2019,04,27,13,52,11.00
2019,04,27,13,53,11.10
2019,04,27,13,54,11.10
2019,04,27,13,55,11.10
2019,04,27,13,56,11.10
2019,04,27,13,57,11.00
2019,04,27,13,58,10.90
2019,04,27,13,59,10.90
2019,04,27,14,00,10.90
2019,04,27,14,01,10.90
2019,04,27,14,02,10.90
2019,04,27,14,03,10.90
2019,04,27,14,04,10.90
2019,04,27,14,05,10.90
2019,04,27,14,06,10.80
2019,04,27,14,07,10.80
2019,04,27,14,08,10.70
2019,04,27,14,09,10.70
2019,04,27,14,10,10.70
2019,04,27,14,11,10.60
2019,04,27,14,12,10.60
2019,04,27,14,13,10.60
2019,04,27,14,14,10.60
2019,04,27,14,15,10.40
2019,04,27,14,16,10.30
2019,04,27,14,17,10.20
2019,04,27,14,18,10.10
2019,04,27,14,19,10.00
2019,04,27,14,20,9.90
2019,04,27,14,21,9.90
2019,04,27,14,22,9.90
2019,04,27,14,23,9.80
2019,04,27,14,24,9.70
2019,04,27,14,25,9.70
2019,04,27,14,26,9.70
2019,04,27,14,27,9.70
2019,04,27,14,28,9.70
2019,04,27,14,29,9.70
2019,04,27,14,30,9.70
2019,04,27,14,31,9.60
2019,04,27,14,32,9.70
2019,04,27,14,33,9.70
2019,04,27,14,34,9.70
2019,04,27,14,35,9.70
2019,04,27,14,36,9.70
2019,04,27,14,37,9.70
2019,04,27,14,38,9.70
2019,04,27,14,39,9.80
2019,04,27,14,40,9.90
2019,04,27,14,41,9.90
2019,04,27,14,42,10.00
2019,04,27,14,43,10.10
2019,04,27,14,44,10.10
2019,04,27,14,45,10.10
2019,04,27,14,46,10.20
2019,04,27,14,47,10.20
2019,04,27,14,48,10.30
2019,04,27,14,49,10.40
2019,04,27,14,50,10.50
2019,04,27,14,51,10.70
2019,04,27,14,52,10.90
2019,04,27,14,53,11.10
2019,04,27,14,54,11.20
2019,04,27,14,55,11.30
2019,04,27,14,56,11.40
2019,04,27,14,57,11.50
2019,04,27,14,58,11.60
2019,04,27,14,59,11.80
2019,04,27,15,00,11.80
2019,04,27,15,01,11.90
2019,04,27,15,02,11.90
2019,04,27,15,03,12.00
2019,04,27,15,04,11.90
2019,04,27,15,05,11.90
2019,04,27,15,06,11.80
2019,04,27,15,07,11.80
2019,04,27,15,08,11.70
2019,04,27,15,09,11.60
2019,04,27,15,10,11.40
2019,04,27,15,11,11.30
2019,04,27,15,12,11.20
2019,04,27,15,13,11.10
2019,04,27,15,14,10.90
2019,04,27,15,15,10.80
2019,04,27,15,16,10.80
2019,04,27,15,17,10.90
2019,04,27,15,18,10.90
2019,04,27,15,19,11.00
2019,04,27,15,20,11.20
2019,04,27,15,21,11.30
2019,04,27,15,22,11.30
2019,04,27,15,23,11.40
2019,04,27,15,24,11.30
2019,04,27,15,25,11.30
2019,04,27,15,26,11.30
2019,04,27,15,27,11.30
2019,04,27,15,28,11.30
2019,04,27,15,29,11.30
2019,04,27,15,30,11.40
2019,04,27,15,31,11.40
2019,04,27,15,32,11.40
2019,04,27,15,33,11.40
2019,04,27,15,34,11.40
2019,04,27,15,35,11.40
2019,04,27,15,36,11.40
2019,04,27,15,37,11.40
2019,04,27,15,38,11.50
2019,04,27,15,39,11.60
2019,04,27,15,40,11.60
2019,04,27,15,41,11.70
2019,04,27,15,42,11.80
2019,04,27,15,43,11.80
2019,04,27,15,44,11.80
2019,04,27,15,45,11.80
2019,04,27,15,46,11.90
2019,04,27,15,47,11.90
2019,04,27,15,48,12.00
2019,04,27,15,49,12.10
2019,04,27,15,50,12.10
2019,04,27,15,51,12.10
2019,04,27,15,52,12.10
2019,04,27,15,53,12.00
2019,04,27,15,54,12.00
2019,04,27,15,55,11.90
2019,04,27,15,56,11.80
2019,04,27,15,57,11.80
2019,04,27,15,58,11.80
2019,04,27,15,59,11.70
2019,04,27,16,00,11.70
2019,04,27,16,01,11.60
2019,04,27,16,02,11.60
2019,04,27,16,03,11.60
2019,04,27,16,04,11.60
2019,04,27,16,05,11.60
2019,04,27,16,06,11.60
2019,04,27,16,07,11.60
2019,04,27,16,08,11.60
2019,04,27,16,09,11.60
2019,04,27,16,10,11.60
2019,04,27,16,11,11.60
2019,04,27,16,12,11.60
2019,04,27,16,13,11.60
2019,04,27,16,14,11.60
2019,04,27,16,15,11.60
2019,04,27,16,16,11.60
2019,04,27,16,17,11.60
2019,04,27,16,18,11.60
2019,04,27,16,19,11.70
2019,04,27,16,20,11.80
2019,04,27,16,21,11.80
2019,04,27,16,22,11.80
2019,04,27,16,23,11.70
2019,04,27,16,24,11.70
2019,04,27,16,25,11.60
2019,04,27,16,26,11.60
2019,04,27,16,27,11.60
2019,04,27,16,28,11.60
2019,04,27,16,29,11.60
2019,04,27,16,30,11.60
2019,04,27,16,31,11.50
2019,04,27,16,32,11.60
2019,04,27,16,33,11.50
2019,04,27,16,34,11.40
2019,04,27,16,35,11.40
2019,04,27,16,36,11.40
2019,04,27,16,37,11.40
2019,04,27,16,38,11.40
2019,04,27,16,39,11.30
2019,04,27,16,40,11.30
2019,04,27,16,41,11.30
2019,04,27,16,42,11.20
2019,04,27,16,43,11.20
2019,04,27,16,44,11.20
2019,04,27,16,45,11.20
2019,04,27,16,46,11.20
2019,04,27,16,47,11.20
2019,04,27,16,48,11.20
2019,04,27,16,49,11.10
2019,04,27,16,50,11.10
2019,04,27,16,51,11.10
2019,04,27,16,52,11.10
2019,04,27,16,53,11.10
2019,04,27,16,54,11.00
2019,04,27,16,55,10.90
2019,04,27,16,56,10.90
2019,04,27,16,57,10.90
2019,04,27,16,58,10.90
2019,04,27,16,59,10.90
2019,04,27,17,00,10.90
2019,04,27,17,01,10.80
2019,04,27,17,02,10.80
2019,04,27,17,03,10.70
2019,04,27,17,04,10.70
2019,04,27,17,05,10.70
2019,04,27,17,06,10.70
2019,04,27,17,07,10.70
2019,04,27,17,08,10.70
2019,04,27,17,09,10.70
2019,04,27,17,10,10.60
2019,04,27,17,11,10.60
2019,04,27,17,12,10.70
2019,04,27,17,13,10.70
2019,04,27,17,14,10.70
2019,04,27,17,15,10.60
2019,04,27,17,16,10.60
2019,04,27,17,17,10.60
2019,04,27,17,18,10.60
2019,04,27,17,19,10.60
2019,04,27,17,20,10.50
2019,04,27,17,21,10.40
2019,04,27,17,22,10.40
2019,04,27,17,23,10.40
2019,04,27,17,24,10.40
2019,04,27,17,25,10.40
2019,04,27,17,26,10.30
2019,04,27,17,27,10.30
2019,04,27,17,28,10.30
2019,04,27,17,29,10.30
2019,04,27,17,30,10.30
2019,04,27,17,31,10.30
2019,04,27,17,32,10.30
2019,04,27,17,33,10.30
2019,04,27,17,34,10.30
2019,04,27,17,35,10.20
2019,04,27,17,36,10.20
2019,04,27,17,37,10.20
2019,04,27,17,38,10.20
2019,04,27,17,39,10.30
2019,04,27,17,40,10.30
2019,04,27,17,41,10.30
2019,04,27,17,42,10.30
2019,04,27,17,43,10.30
2019,04,27,17,44,10.30
2019,04,27,17,45,10.20
2019,04,27,17,46,10.20
2019,04,27,17,47,10.20
2019,04,27,17,48,10.20
2019,04,27,17,49,10.20